Flag for U.S.A. Weather past 2 weeks in Olathe, Kansas, U.S.A.

Now
60 °F

Thunderstorms. Fog.


Feels Like: 60 °F
Forecast: 58 / 65 °F
Wind: 12 mph from South

Location: Johnson County Executive Airport

Current Time: Apr 18, 2015 at 10:57:16 AM

Latest Report: Apr 18, 2015 at 9:53 AM


Visibility: 5 mi

Pressure: 29.94 "Hg

Humidity: 93%

Dew point: 58 °F

Location of OlatheLocation

Historic Weather in Olathe — Graph

°F

Olathe temperature yesterday

Maximum temperature yesterday: 75 °F (at 2:53 PM)
Minimum temperature yesterday: 57 °F (at 4:53 AM)
Average temperature yesterday: 67 °F

Past Weeks' High & Low Weather Summary

 TemperatureHumidityPressure
High83 °F (Apr 7, 3:53 PM)100% (Apr 5, 11:53 PM)30.40 "Hg (Apr 5, 11:53 PM)
Low29 °F (Apr 4, 6:53 AM)22% (Apr 13, 1:53 PM)29.54 "Hg (Apr 9, 4:53 AM)
Average58 °F68%29.99 "Hg
* Reported Apr 3 9:53 AM — Apr 18 9:53 AM, Olathe, Weather by CustomWeather, © 2015

Note: Actual official high and low records may vary slightly from our data, if they occured in-between our weather recording intervals... More about our weather records

Advertising

Olathe weather history for previous 24 hours

 ConditionsComfort  
Time TempWeatherWind HumidityBarometerVisibility
9:53 AM
Sat, Apr 18
60 °FThunderstorms. Fog.12 mph93%29.94 "Hg5 mi
9:02 AM62 °FThunderstorms. Mostly cloudy.14 mph90%29.91 "Hg9 mi
8:53 AM61 °FThunderstorms. Cloudy.13 mph93%29.90 "Hg7 mi
7:53 AM61 °FPartly sunny.5 mph90%29.89 "Hg10 mi
6:53 AM61 °FClear.5 mph90%29.88 "Hg10 mi
5:53 AM62 °FPassing clouds.5 mph86%29.88 "Hg10 mi
4:53 AM63 °FPassing clouds.7 mph84%29.89 "Hg10 mi
3:53 AM63 °FPassing clouds.No wind84%29.90 "Hg10 mi
2:53 AM64 °FClear.No wind84%29.92 "Hg10 mi
1:53 AM63 °FClear.5 mph87%29.93 "Hg10 mi
12:53 AM65 °FClear.3 mph81%29.93 "Hg10 mi
11:53 PM
Fri, Apr 17
64 °FClear.3 mph81%29.94 "Hg10 mi
10:53 PM67 °FClear.No wind73%29.95 "Hg10 mi
9:53 PM66 °FClear.No wind75%29.96 "Hg10 mi
8:53 PM69 °FSunny.No wind70%29.94 "Hg10 mi
7:53 PM69 °FPassing clouds.No wind70%29.94 "Hg10 mi
6:53 PM73 °FPassing clouds.5 mph62%29.94 "Hg10 mi
5:53 PM73 °FOvercast.9 mph57%29.95 "Hg10 mi
4:53 PM74 °FOvercast.9 mph57%29.93 "Hg10 mi
3:53 PM74 °FPartly sunny.9 mph57%29.93 "Hg10 mi
2:53 PM75 °FPassing clouds.8 mph58%29.94 "Hg10 mi
1:53 PM73 °FScattered clouds.9 mph64%29.97 "Hg10 mi
12:53 PM72 °FScattered clouds.13 mph66%30.01 "Hg10 mi
11:53 AM71 °FPartly sunny.12 mph68%30.04 "Hg10 mi
10:53 AM72 °FScattered clouds.12 mph64%30.04 "Hg10 mi
Weather by CustomWeather, © 2015

See weather overviewHow to use our weather pages